TEVEL-2 (51069 NORAD) Tracking and Keplerian Element Data

This shows tracking and keplerian element data for the satellite.

Feedback or suggestion? Click here.




ElementValue
Catalog51069
NameTEVEL-2
Epoch Orbit13364
Epoch Day160.18501634
Epoch Year2024
RAAN235.5815
Inclination97.3764
Eccentricity0.000176
Argument of Perigee226.959
Mean Anonmoly133.1523
Mean Motion15.65447747
Decay Rate0.00206256
L11 51069U 22002CP 24160.18501634 .00206256 00000+0 20203-2 0 9997
L22 51069 97.3764 235.5815 0001760 226.9590 133.1523 15.65447747133640



Live tracking and technical data element details for TEVEL-2 (NORAD 51069). TEVEL-2 can be tracked NOW for your location showing map with azimuth and elevation plus other details from your city location.







IsCatalogInMostPopularTable: catalog: 51069, numindb: 84
Update: records affected: 1



GetName: 51069 TEVEL-2

Hit Count: updated at: Fri, 24 Jan 2025 23:16:20 GMT